GW3496 Weather Reports


time (UTC)temp
C
wind
direction
speed
KPH
gust
KPH
rain 1hr
cm
rain 24hr
cm
rain mn
cm
humidity
%
barometer
mb
20260505214535 28 232 19.3 33.8 0.00 0.00 0.00 29 1008.0
20260505213033 28 248 20.9 38.6 0.00 0.00 0.00 28 1007.9
20260505211531 28 223 30.6 49.9 0.00 0.00 0.00 26 1007.7
20260505210030 28 237 17.7 43.5 0.00 0.00 0.00 27 1007.8
20260505204530 28 217 27.4 53.1 0.00 0.00 0.00 26 1007.7
20260505203029 29 217 19.3 43.5 0.00 0.00 0.00 27 1007.8
20260505201532 28 199 22.5 45.1 0.00 0.00 0.00 28 1007.9
20260505200039 28 225 35.4 54.7 0.00 0.00 0.00 27 1007.9
20260505194538 28 220 16.1 41.8 0.00 0.00 0.00 28 1008.1
20260505193041 28 201 24.1 53.1 0.00 0.00 0.00 29 1008.1
20260505191537 28 212 25.7 51.5 0.00 0.00 0.00 28 1008.5
20260505190030 28 248 22.5 37.0 0.00 0.00 0.00 28 1009.1
20260505184533 28 252 16.1 43.5 0.00 0.00 0.00 30 1009.1
20260505183036 27 224 32.2 56.3 0.00 0.00 0.00 31 1009.1
20260505181541 27 177 27.4 40.2 0.00 0.00 0.00 31 1009.2
20260505180034 27 182 20.9 40.2 0.00 0.00 0.00 33 1009.6
20260505174533 27 194 19.3 45.1 0.00 0.00 0.00 34 1009.6
20260505173032 27 208 20.9 41.8 0.00 0.00 0.00 34 1009.7
20260505171532 27 198 17.7 29.0 0.00 0.00 0.00 35 1009.7
20260505170034 26 234 12.9 24.1 0.00 0.00 0.00 37 1009.8
20260505164530 26 244 24.1 40.2 0.00 0.00 0.00 37 1010.2
20260505163032 26 250 16.1 27.4 0.00 0.00 0.00 40 1010.6
20260505161542 25 241 22.5 38.6 0.00 0.00 0.00 40 1010.8
20260505153033 25 208 8.0 25.7 0.00 0.00 0.00 43 1011.2
20260505151529 24 240 16.1 38.6 0.00 0.00 0.00 44 1011.1
20260505124536 18 213 4.8 30.6 0.00 0.00 0.00 57 1011.2
20260505123035 18 185 11.3 22.5 0.00 0.00 0.00 57 1011.0
20260505121538 17 155 11.3 20.9 0.00 0.00 0.00 59 1011.0
20260505120043 17 220 12.9 22.5 0.00 0.00 0.00 59 1011.2
20260505114538 17 208 8.0 16.1 0.00 0.00 0.00 60 1010.9
20260505113036 17 230 6.4 19.3 0.00 0.00 0.00 61 1010.7
20260505111534 16 236 9.7 14.5 0.00 0.00 0.00 61 1010.5
20260505101542 16 192 1.6 11.3 0.00 0.00 0.00 61 1010.1
20260505100035 16 188 6.4 16.1 0.00 0.00 0.00 60 1010.0
20260505094541 16 215 9.7 20.9 0.00 0.00 0.00 60 1010.1
20260505093040 17 189 9.7 16.1 0.00 0.00 0.00 59 1009.8
20260505091539 17 190 11.3 19.3 0.00 0.00 0.00 58 1009.9
20260505090045 17 196 11.3 25.7 0.00 0.00 0.00 58 1009.7
20260505084550 17 232 12.9 27.4 0.00 0.00 0.00 57 1009.7
20260505083048 17 179 12.9 19.3 0.00 0.00 0.00 56 1009.6
20260505081552 17 193 12.9 27.4 0.00 0.00 0.00 56 1009.5
20260505080048 17 198 11.3 20.9 0.00 0.00 0.00 56 1009.4
20260505074538 17 200 9.7 24.1 0.00 0.00 0.00 55 1009.5
20260505073044 17 201 11.3 24.1 0.00 0.00 0.00 55 1009.5
20260505071545 17 198 9.7 17.7 0.00 0.00 0.00 55 1009.4
20260505070044 17 216 9.7 17.7 0.00 0.00 0.00 55 1009.4
20260505064541 17 232 11.3 19.3 0.00 0.00 0.00 55 1009.1
20260505063040 17 204 9.7 19.3 0.00 0.00 0.00 55 1009.3
20260505061551 18 192 9.7 19.3 0.00 0.00 0.00 54 1009.4
20260505060034 18 229 12.9 20.9 0.00 0.00 0.00 53 1009.3
20260505054530 18 209 12.9 17.7 0.00 0.00 0.00 53 1009.1
20260505053035 18 231 11.3 22.5 0.00 0.00 0.00 53 1009.0
20260505051531 18 188 8.0 17.7 0.00 0.00 0.00 53 1009.1
20260505041533 19 216 11.3 19.3 0.00 0.00 0.00 51 1008.9
20260505040039 20 215 8.0 17.7 0.00 0.00 0.00 50 1008.9
20260505034533 20 234 8.0 19.3 0.00 0.00 0.00 50 1009.1
20260505033039 20 227 8.0 16.1 0.00 0.00 0.00 50 1009.0
20260505031550 20 254 8.0 19.3 0.00 0.00 0.00 49 1009.2
20260505030035 20 190 8.0 19.3 0.00 0.00 0.00 49 1009.3
20260505024545 20 213 8.0 14.5 0.00 0.00 0.00 48 1009.2
20260505023040 20 211 9.7 17.7 0.00 0.00 0.00 48 1009.0
20260505021536 21 192 6.4 12.9 0.00 0.00 0.00 47 1009.1
20260505020041 21 205 6.4 11.3 0.00 0.00 0.00 46 1009.0
20260505014559 21 193 4.8 9.7 0.00 0.00 0.00 45 1008.8
20260505013034 21 205 4.8 11.3 0.00 0.00 0.00 44 1008.7
20260505011540 22 182 4.8 9.7 0.00 0.00 0.00 42 1008.7
20260505010033 22 195 9.7 19.3 0.00 0.00 0.00 41 1008.6
20260505004535 22 217 9.7 14.5 0.00 0.00 0.00 40 1008.5
20260505003035 23 183 11.3 19.3 0.00 0.00 0.00 39 1008.2
20260505001542 23 213 11.3 19.3 0.00 0.00 0.00 38 1008.5
20260505000035 23 209 16.1 27.4 0.00 0.00 0.00 38 1008.5
20260504234541 23 159 12.9 27.4 0.00 0.00 0.00 38 1008.2
20260504233035 23 207 12.9 22.5 0.00 0.00 0.00 37 1008.1
20260504231531 24 175 17.7 29.0 0.00 0.00 0.00 37 1008.0
20260504230035 24 217 16.1 27.4 0.00 0.00 0.00 36 1007.9
20260504224538 25 198 11.3 22.5 0.00 0.00 0.00 36 1008.2
20260504223035 25 245 17.7 27.4 0.00 0.00 0.00 35 1008.1
20260504221535 25 235 22.5 37.0 0.00 0.00 0.00 35 1008.2
20260504220034 25 240 12.9 25.7 0.00 0.00 0.00 35 1008.2